Flag for Denmark Weather past 2 weeks in Horsens, Denmark

Now
54 °F

Passing clouds.


Feels Like: 51 °F
Forecast: 53 / 61 °F
Wind: 8 mph from South

Location: Billund Lufthavn

Current Time: Sep 3, 2015 at 2:09:37 AM

Latest Report: Sep 3, 2015 at 1:20 AM


Visibility: N/A

Pressure: 29.83 "Hg

Humidity: 88%

Dew point: 50 °F

Location of HorsensLocation

Historic Weather in Horsens — Graph

°F

Horsens temperature yesterday

Maximum temperature yesterday: 64 °F (at 3:20 PM)
Minimum temperature yesterday: 54 °F (at 11:20 PM)
Average temperature yesterday: 58 °F

Past Weeks' High & Low Weather Summary

 TemperatureHumidityPressure
High77 °F (Aug 19, 2:50 PM)100% (Aug 26, 7:20 AM)30.30 "Hg (Aug 26, 7:20 AM)
Low45 °F (Aug 29, 5:20 AM)27% (Aug 21, 6:50 PM)29.59 "Hg (Aug 24, 11:20 PM)
Average63 °F76%29.96 "Hg
* Reported Aug 19 12:20 AM — Sep 3 12:50 AM, Horsens, Weather by CustomWeather, © 2015

Note: Actual official high and low records may vary slightly from our data, if they occured in-between our weather recording intervals... More about our weather records

Advertising

Horsens weather history for previous 24 hours

 ConditionsComfort  
Time TempWeatherWind HumidityBarometerVisibility
12:50 AM
Thu, Sep 3
54 °FPassing clouds.6 mph88%29.83 "HgN/A
11:20 PM
Wed, Sep 2
54 °FPassing clouds.8 mph94%29.83 "HgN/A
10:50 PM55 °FPassing clouds.8 mph88%29.80 "HgN/A
10:20 PM55 °FSprinkles. Partly cloudy.8 mph88%29.80 "HgN/A
9:50 PM55 °FSprinkles. Partly cloudy.10 mph82%29.83 "HgN/A
9:20 PM57 °FSprinkles. Partly cloudy.9 mph77%29.80 "HgN/A
8:50 PM57 °FScattered clouds.9 mph77%29.80 "HgN/A
8:20 PM57 °FScattered clouds.10 mph77%29.80 "HgN/A
7:50 PM57 °FScattered clouds.14 mph77%29.80 "HgN/A
7:20 PM59 °FScattered clouds.15 mph72%29.80 "HgN/A
6:50 PM59 °FPartly sunny.16 mph72%29.80 "HgN/A
6:20 PM61 °FPartly sunny.16 mph63%29.77 "HgN/A
5:50 PM61 °FPartly sunny.14 mph68%29.77 "HgN/A
5:20 PM59 °FPartly sunny.18 mph77%29.77 "HgN/A
4:50 PM61 °FScattered clouds.22 mph68%29.77 "HgN/A
4:20 PM61 °FSprinkles. Partly sunny.17 mph77%29.77 "HgN/A
3:50 PM64 °FScattered clouds.22 mph60%29.77 "HgN/A
3:20 PM64 °FScattered clouds.22 mph60%29.77 "HgN/A
2:50 PM63 °FScattered clouds.21 mph64%29.77 "HgN/A
1:50 PM63 °FScattered clouds.18 mph64%29.74 "HgN/A
1:20 PM61 °FScattered clouds.18 mph72%29.74 "HgN/A
12:50 PM59 °FScattered showers. Scattered clouds.18 mph82%29.74 "HgN/A
12:20 PM59 °FScattered clouds.21 mph77%29.74 "HgN/A
11:50 AM59 °FScattered clouds.17 mph82%29.74 "HgN/A
11:20 AM59 °FPartly sunny.18 mph82%29.74 "HgN/A
11:02 AM59 °FSprinkles. Partly sunny.18 mph82%29.74 "HgN/A
10:20 AM61 °FPassing clouds.18 mph72%29.71 "HgN/A
9:50 AM61 °FPartly sunny.20 mph68%29.71 "HgN/A
9:20 AM59 °FPartly sunny.16 mph77%29.71 "HgN/A
8:50 AM59 °FScattered clouds.14 mph77%29.71 "HgN/A
8:20 AM57 °FPartly sunny.12 mph82%29.71 "HgN/A
7:50 AM57 °FScattered clouds.13 mph77%29.71 "HgN/A
7:20 AM55 °FPassing clouds.10 mph82%29.71 "HgN/A
6:50 AM55 °FPassing clouds.8 mph82%29.71 "HgN/A
6:20 AM55 °FPassing clouds.9 mph88%29.71 "HgN/A
5:50 AM55 °FPassing clouds.12 mph88%29.71 "HgN/A
5:20 AM55 °FPassing clouds.9 mph82%29.71 "HgN/A
4:50 AM55 °FPassing clouds.12 mph88%29.71 "HgN/A
4:20 AM55 °FCool.13 mph82%29.71 "HgN/A
3:50 AM55 °FCool.12 mph82%29.71 "HgN/A
3:20 AM55 °FPassing clouds.10 mph88%29.74 "HgN/A
2:50 AM55 °FPassing clouds.12 mph88%29.74 "HgN/A
2:20 AM55 °FPassing clouds.12 mph88%29.74 "HgN/A
Weather by CustomWeather, © 2015

See weather overviewHow to use our weather pages